Regional Weather Roundup
Issued by NWS

Home | Current Version | Previous Version | Graphics & Text | Print | Product List | Glossary On
Versions: 1 2 3 4 5 6 7 8 9 10 11 12 13 14 15 16 17 18 19 20 21 22 23 24 25 26 27 28 29 30 31 32 33 34 35 36 37 38 39 40 41 42 43 44 45 46 47 48 49 50
000
ASUS43 KTOP 271559
RWRKS

WEATHER ROUNDUP FOR KANSAS
NATIONAL WEATHER SERVICE GOODLAND KS
1000 AM CST TUE JAN 27 2015

NOTE:  "FAIR" INDICATES FEW OR NO CLOUDS BELOW 12,000 FEET WITH NO
SIGNIFICANT WEATHER AND/OR OBSTRUCTIONS TO VISIBILITY.

KSZ001>006-013>018-027>032-041>047-271700-
NORTHWEST KANSAS

CITY           SKY/WX    TMP DP  RH WIND       PRES   REMARKS
GOODLAND       SUNNY     59  27  29 W13       30.11S
HAYS           SUNNY     46  28  49 CALM      30.09S
HILL CITY      SUNNY     48  32  53 W6        30.08F
RUSSELL        SUNNY     45  33  63 W8        30.07S
$$

KSZ061>065-074>080-084>089-271700-
SOUTHWEST KANSAS

CITY           SKY/WX    TMP DP  RH WIND       PRES   REMARKS
DODGE CITY     SUNNY     54  31  41 W13       30.14S
ELKHART          N/A     56  33  42 W7          N/A
GARDEN CITY    SUNNY     50  33  52 W9        30.14R
GREAT BEND     SUNNY     52  36  54 W10       30.10F
LIBERAL        SUNNY     48  36  61 W5        30.20S
$$

KSZ066>073-081>083-090>101-271700-
SOUTHEAST KANSAS

CITY           SKY/WX    TMP DP  RH WIND       PRES   REMARKS
CHANUTE        SUNNY     48  35  60 SE6       30.17R
COFFEYVILLE    SUNNY     47  35  63 CALM      30.18R
HUTCHINSON     SUNNY     50  35  56 S6        30.12F
MEDICINE LODGE   N/A     51  33  50 CALM      30.14R
NEWTON         SUNNY     52  32  46 S13       30.15R
PARSONS        SUNNY     49  36  61 CALM      30.18R
WICHITA INTL   SUNNY     51  34  52 S9        30.13F
WICHITA JABRA  SUNNY     53  33  46 SE9       30.13S
WICHITA MCCONL SUNNY     54  33  46 SE9       30.14S
WINFIELD       SUNNY     53  32  44 SE8       30.16R
$$

KSZ007>012-019>026-033>040-048>060-102>105-271700-
NORTHEAST KANSAS

CITY           SKY/WX    TMP DP  RH WIND       PRES   REMARKS
CONCORDIA      SUNNY     48  35  60 SE6       30.10S
EMPORIA        SUNNY     46  34  62 SE12      30.15R
LAWRENCE       SUNNY     39  32  76 SE3       30.17R
MANHATTAN      SUNNY     40  30  67 CALM      30.14S
OLATHE IND     SUNNY     42  34  73 SE3       30.17R
OLATHE EXE     SUNNY     43  34  70 VRB5      30.16R
SALINA         SUNNY     47  35  63 S10       30.11S
TOPEKA BILLARD SUNNY     41  31  67 E3        30.17R
TOPEKA FORBES  SUNNY     45  34  65 E9        30.15R
$$


USA.gov is the U.S. government's official web portal to all federal, state and local government web resources and services.